[[{"header":{"parameterUnit":"m.s-1","parameterCategory":1,"la1":30.2991,"la2":30.254,"lo1":-89.0895,"lo2":-89.0444,"dy":0.0017,"dx":0.0017,"nx":28,"ny":28,"refTime":"2024-08-26T21:00:00:Z","depth":0,"parameterNumber":2,"parameterNumberName":"U-component_of_WINDS"},"data":[0,0,0,0,0,0,0,0,0,0,0,0,0,0,0,0,0,0,0,0,0,0,0,0,0,0,0,0,0,0,0,0,0,0,0,0,0,0,0,0,0,0,0,0,0,0,0,0,0,0,0,0,0,0,0,0,0,0,-3.4813,-3.4812,0,-3.4729,-3.4728,-3.4727,-3.4619,-3.4617,-3.4615,-3.4614,-3.4529,-3.4528,-3.4528,0,0,0,0,0,0,0,0,0,0,0,0,0,-3.4882,-3.4882,-3.4813,-3.4812,-3.4811,-3.4729,-3.4728,-3.4727,-3.4619,-3.4617,-3.4615,-3.4613,-3.4529,-3.4528,-3.4528,0,0,0,0,0,0,0,0,0,0,0,0,0,-3.4831,-3.4881,-3.4813,-3.4747,-3.474,-3.4729,-3.4728,-3.4726,-3.4619,-3.4617,-3.4614,-3.4612,-3.4529,-3.4528,-3.4527,-3.4575,0,0,-3.4525,-3.4524,0,0,0,0,0,0,0,0,-3.4834,-3.4828,-3.4758,-3.4752,-3.4744,-3.4681,-3.4721,-3.4676,-3.462,-3.4665,-3.4613,-3.461,-3.4582,-3.4576,-3.4566,-3.4571,-3.4567,-3.4525,-3.4524,-3.4524,-3.4523,0,0,0,0,0,0,0,-3.4837,-3.4831,-3.478,-3.4757,-3.4749,-3.4723,-3.4712,-3.4712,-3.464,-3.4661,-3.4653,-3.4645,-3.4578,-3.4568,-3.4564,-3.4566,-3.4525,-3.4524,-3.4523,-3.4523,-3.4607,-3.461,0,0,0,0,0,0,-3.4851,-3.4835,-3.4782,-3.4777,-3.4783,-3.4723,-3.4712,-3.4704,-3.4639,-3.4627,-3.4647,-3.464,-3.4571,-3.4565,-3.456,-3.4613,-3.4524,-3.4523,-3.4522,-3.4604,-3.4607,-3.461,0,0,0,0,0,0,-3.4853,-3.4847,-3.4786,-3.4804,-3.4794,-3.4725,-3.4717,-3.4704,-3.4694,-3.4628,-3.4615,-3.465,-3.4568,-3.4562,-3.4572,-3.4608,-3.4522,-3.4521,-3.4601,-3.4605,-3.4609,-3.4718,0,0,0,0,0,0,-3.4855,-3.4848,-3.4865,-3.4805,-3.4793,-3.4799,-3.4719,-3.4704,-3.4692,-3.4682,-3.4628,-3.4616,-3.4566,-3.4574,-3.4571,-3.4606,-3.4521,-3.4597,-3.4603,-3.4608,-3.4711,-3.4725,-3.4737,0,0,0,0,0,-3.4858,-3.4898,-3.4866,-3.486,-3.4813,-3.4801,-3.4794,-3.4735,-3.4696,-3.4712,-3.4671,-3.4618,-3.4605,-3.4576,-3.4572,-3.4607,-3.4595,-3.4601,-3.4607,-3.4705,-3.4722,-3.4737,0,0,0,0,0,0,-3.4964,-3.4889,-3.4853,-3.4875,-3.4845,-3.4783,-3.4801,-3.4755,-3.4736,-3.4727,-3.4655,-3.4644,-3.4664,-3.4636,-3.4605,-3.465,-3.4592,-3.4598,-3.4668,-3.4684,-3.4697,-3.4704,-3.452,0,0,0,0,0,-3.499,-3.4986,-3.4921,-3.4947,-3.4934,-3.4871,-3.4863,-3.4821,-3.4787,-3.4774,-3.4732,-3.4702,-3.4692,-3.4686,-3.4672,-3.4706,-3.4694,-3.4728,-3.4741,-3.4753,-3.4759,-3.4777,-3.4792,-3.4631,-3.4631,-3.4631,0,0,-3.5044,-3.5002,-3.5004,-3.4968,-3.4939,-3.4938,-3.4861,-3.4862,-3.4861,-3.4774,-3.4782,-3.4751,-3.4713,-3.4736,-3.4744,-3.4713,-3.4801,-3.4761,-3.477,-3.477,-3.4785,-3.48,-3.4814,-3.4635,-3.4635,-3.4634,0,0,-3.5141,-3.5109,-3.5128,-3.5102,-3.506,-3.5018,-3.5023,-3.4968,-3.4944,-3.4951,-3.4886,-3.4884,-3.4866,-3.4842,-3.4828,-3.4919,-3.4871,-3.4917,-3.4987,-3.5006,-3.5019,-3.503,-3.5064,-3.5077,-3.4923,-3.4923,-3.4923,0,-3.5213,-3.5208,-3.5144,-3.515,-3.5136,-3.5058,-3.5078,-3.5055,-3.5012,-3.5005,-3.4971,-3.4949,-3.4917,-3.4935,-3.4958,-3.4948,-3.4953,-3.4923,-3.5022,-3.5032,-3.5042,-3.5074,-3.5087,-3.4929,-3.4929,-3.4928,-3.4927,0,-3.53,-3.5297,-3.5318,-3.5278,-3.5267,-3.528,-3.5219,-3.5216,-3.5174,-3.5137,-3.5146,-3.5106,-3.5084,-3.5084,-3.5043,-3.5097,-3.508,-3.5035,-3.4976,-3.5064,-3.5093,-3.5105,-3.4938,-3.4936,-3.4934,-3.4932,0,0,-3.5461,-3.5387,-3.5396,-3.5378,-3.5327,-3.5325,-3.5335,-3.5313,-3.5313,-3.5286,-3.5294,-3.5282,-3.5241,-3.5225,-3.5181,-3.5197,-3.5275,-3.5151,-3.5149,-3.5177,-3.5334,-3.5369,-3.5385,-3.5243,-3.5245,-3.5246,-3.5338,0,-3.555,-3.5563,-3.5506,-3.5534,-3.5533,-3.5459,-3.5468,-3.544,-3.5405,-3.5399,-3.5361,-3.5354,-3.53,-3.529,-3.5303,-3.5263,-3.5306,-3.5255,-3.5251,-3.5252,-3.5264,-3.5399,-3.5436,-3.5524,-3.5349,-3.5351,-3.5352,0,-3.5655,-3.5635,-3.5663,-3.5613,-3.561,-3.562,-3.5597,-3.5591,-3.5558,-3.5532,-3.5515,-3.5465,-3.5473,-3.5416,-3.5427,-3.5395,-3.5389,-3.537,-3.5372,-3.537,-3.5308,-3.5403,-3.5551,-3.5565,-3.5369,-3.5368,-3.5366,0,-3.5772,-3.5752,-3.5766,-3.5753,-3.5695,-3.5704,-3.568,-3.5643,-3.5635,-3.5615,-3.5609,-3.5591,-3.5581,-3.5569,-3.5516,-3.5478,-3.5534,-3.5472,-3.5514,-3.5516,-3.553,-3.553,-3.5681,-3.5525,-3.5525,-3.5524,-3.5524,0,-3.5878,-3.5899,-3.5819,-3.5828,-3.585,-3.5785,-3.5809,-3.5778,-3.5747,-3.575,-3.5685,-3.5689,-3.5618,-3.5615,-3.5574,-3.5591,-3.5587,-3.5567,-3.5556,-3.5574,-3.5577,-3.557,-3.5563,-3.5528,-3.5527,-3.5526,-3.5526,0,-3.6013,-3.5959,-3.5971,-3.5916,-3.5902,-3.5921,-3.5874,-3.5881,-3.5843,-3.5848,-3.5845,-3.5786,-3.578,-3.5725,-3.5706,-3.5679,-3.5713,-3.5689,-3.5724,-3.5717,-3.5763,-3.576,-3.5916,-3.5934,-3.5766,-3.5767,-3.5769,0,-3.6084,-3.6099,-3.6045,-3.6043,-3.6022,-3.6019,-3.601,-3.5948,-3.5941,-3.5906,-3.5918,-3.5906,-3.5893,-3.5887,-3.5843,-3.5829,-3.5805,-3.5861,-3.5803,-3.5821,-3.5809,-3.5809,-3.5811,-3.5874,-3.5876,-3.5878,-3.5879,0,-3.6218,-3.6192,-3.6181,-3.6163,-3.6155,-3.6137,-3.6115,-3.6117,-3.6049,-3.6045,-3.6038,-3.6029,-3.601,-3.6,-3.5979,-3.5955,-3.5908,-3.5898,-3.5907,-3.5926,-3.5947,-3.5938,-3.576,-3.5895,-3.5893,-3.5892,-3.5891,-3.5891,-3.6324,-3.6335,-3.6299,-3.6291,-3.6268,-3.625,-3.6255,-3.6218,-3.6211,-3.6191,-3.6155,-3.6154,-3.6122,-3.6088,-3.6069,-3.6068,-3.6039,-3.6052,-3.6056,-3.6061,-3.6071,-3.5946,-3.6064,-3.6063,-3.6063,-3.6062,-3.6062,0,-3.6456,-3.643,-3.6423,-3.6396,-3.639,-3.6344,-3.6318,-3.6317,-3.6316,-3.6291,-3.628,-3.6273,-3.6264,-3.622,-3.6206,-3.6214,-3.6192,-3.6213,-3.6212,-3.6208,-3.6096,-3.6091,-3.6231,-3.6231,-3.6231,-3.6231,-3.6231,-3.6231,-3.6524,-3.654,-3.651,-3.6515,-3.6488,-3.6487,-3.6477,-3.646,-3.644,-3.6435,-3.6427,-3.6398,-3.6366,-3.6349,-3.634,-3.6327,-3.6326,-3.6355,-3.6335,-3.6232,-3.6216,-3.62,-3.6194,-3.6355,-3.6355,-3.6447,-3.6448,-3.6449]},{"header":{"parameterUnit":"m.s-1","parameterCategory":1,"la1":30.2991,"la2":30.254,"lo1":-89.0895,"lo2":-89.0444,"dy":0.0017,"dx":0.0017,"nx":28,"ny":28,"refTime":"2024-08-26T21:00:00:Z","depth":0,"parameterNumber":3,"parameterNumberName":"V-component_of_WINDS"},"data":[0,0,0,0,0,0,0,0,0,0,0,0,0,0,0,0,0,0,0,0,0,0,0,0,0,0,0,0,0,0,0,0,0,0,0,0,0,0,0,0,0,0,0,0,0,0,0,0,0,0,0,0,0,0,0,0,0,0,1.2297,1.2298,0,1.235,1.2351,1.2352,1.2403,1.2403,1.2404,1.2405,1.2455,1.2456,1.2457,0,0,0,0,0,0,0,0,0,0,0,0,0,1.2236,1.2236,1.2297,1.2298,1.2298,1.235,1.2351,1.2352,1.2402,1.2403,1.2404,1.2405,1.2455,1.2456,1.2457,0,0,0,0,0,0,0,0,0,0,0,0,0,1.2273,1.2237,1.2297,1.233,1.2334,1.235,1.2351,1.2352,1.2402,1.2403,1.2404,1.2405,1.2455,1.2456,1.2457,1.2444,0,0,1.246,1.2461,0,0,0,0,0,0,0,0,1.2271,1.2275,1.2325,1.2328,1.2332,1.2371,1.2348,1.2382,1.2402,1.2376,1.2405,1.2406,1.2426,1.243,1.2437,1.2446,1.2448,1.246,1.2461,1.2461,1.2462,0,0,0,0,0,0,0,1.2268,1.2273,1.2318,1.2325,1.233,1.2341,1.2347,1.2355,1.2395,1.2378,1.2382,1.2388,1.2428,1.2436,1.2439,1.2449,1.246,1.2461,1.2462,1.2462,1.2448,1.2447,0,0,0,0,0,0,1.2261,1.227,1.2316,1.232,1.2303,1.2341,1.2349,1.2357,1.2395,1.2402,1.2387,1.239,1.2434,1.2437,1.2441,1.2426,1.2461,1.2462,1.2463,1.2449,1.2447,1.2446,0,0,0,0,0,0,1.2259,1.2264,1.2314,1.2296,1.2303,1.2341,1.2351,1.2358,1.2366,1.2402,1.2408,1.2388,1.2435,1.2439,1.2442,1.2429,1.2463,1.2464,1.245,1.2448,1.2447,1.2397,0,0,0,0,0,0,1.2257,1.2264,1.226,1.2296,1.2304,1.2316,1.235,1.2358,1.2368,1.2373,1.2404,1.241,1.2436,1.244,1.2443,1.2431,1.2465,1.2451,1.2449,1.2447,1.24,1.2394,1.2389,0,0,0,0,0,1.2255,1.2243,1.2259,1.2265,1.23,1.2315,1.232,1.235,1.2367,1.2362,1.2385,1.2409,1.243,1.244,1.2444,1.2431,1.2452,1.245,1.2447,1.2403,1.2396,1.2389,0,0,0,0,0,0,1.2203,1.2249,1.2267,1.2267,1.2287,1.2324,1.2319,1.2342,1.2357,1.236,1.2396,1.2403,1.2401,1.2417,1.2428,1.242,1.2444,1.2443,1.2409,1.2403,1.2397,1.2392,1.2466,0,0,0,0,0,1.2193,1.2202,1.224,1.2236,1.2246,1.2281,1.2288,1.231,1.2332,1.234,1.2363,1.2382,1.2393,1.2399,1.2411,1.2404,1.241,1.2397,1.2391,1.2387,1.2384,1.2379,1.2373,1.2439,1.2439,1.2439,0,0,1.2169,1.2195,1.2198,1.2227,1.2245,1.2252,1.2287,1.2294,1.2299,1.2341,1.2345,1.2363,1.2386,1.2383,1.2383,1.2396,1.2367,1.2384,1.238,1.2379,1.2376,1.237,1.2364,1.2437,1.2437,1.2438,0,0,1.2129,1.2151,1.2149,1.2167,1.2194,1.2218,1.2217,1.2251,1.2264,1.227,1.2301,1.2307,1.2325,1.234,1.235,1.2316,1.2338,1.232,1.2289,1.2284,1.2279,1.2274,1.2259,1.2254,1.2317,1.2317,1.2317,0,1.2096,1.211,1.2145,1.215,1.216,1.22,1.2197,1.2213,1.2242,1.2247,1.2263,1.2286,1.2305,1.2305,1.2297,1.2304,1.2303,1.2315,1.2277,1.2273,1.2269,1.2255,1.225,1.2314,1.2315,1.2315,1.2315,0,1.2066,1.2075,1.207,1.2098,1.2109,1.2109,1.2144,1.215,1.2171,1.2193,1.2196,1.2221,1.2237,1.224,1.2261,1.2243,1.225,1.227,1.2295,1.2259,1.2247,1.2242,1.2311,1.2312,1.2312,1.2313,0,0,1.1994,1.2042,1.2039,1.2052,1.2085,1.2092,1.2094,1.2112,1.2115,1.2135,1.2136,1.2151,1.217,1.2181,1.2204,1.22,1.2168,1.2221,1.2222,1.2208,1.2147,1.2129,1.2123,1.2184,1.2184,1.2183,1.2144,0,1.1957,1.1964,1.1997,1.1993,1.2,1.2039,1.2041,1.206,1.2081,1.2089,1.2111,1.212,1.2146,1.2152,1.2151,1.2173,1.2156,1.2176,1.2183,1.2183,1.2173,1.2117,1.2098,1.206,1.214,1.2139,1.2139,0,1.1916,1.1933,1.193,1.1963,1.1967,1.1968,1.1986,1.1994,1.2017,1.2032,1.2044,1.207,1.2073,1.2099,1.2102,1.2115,1.212,1.2131,1.213,1.2129,1.2156,1.2111,1.2049,1.2042,1.2132,1.2133,1.2133,0,1.1859,1.1882,1.1883,1.1893,1.1931,1.1931,1.1947,1.1971,1.1979,1.1995,1.2,1.2016,1.2023,1.2034,1.2063,1.208,1.2062,1.209,1.2072,1.2071,1.2064,1.2063,1.1998,1.2072,1.2072,1.2072,1.2073,0,1.1813,1.1809,1.1858,1.1858,1.1854,1.1892,1.1887,1.1906,1.1927,1.1931,1.1966,1.1968,1.2008,1.2014,1.2037,1.2034,1.2038,1.2049,1.2054,1.2044,1.2042,1.2045,1.2047,1.2071,1.2071,1.2072,1.2072,0,1.1748,1.1781,1.1784,1.1821,1.183,1.1825,1.1856,1.1857,1.188,1.1884,1.1887,1.1922,1.1931,1.1963,1.1979,1.1995,1.1984,1.1997,1.1976,1.1979,1.1957,1.1958,1.1889,1.1881,1.1964,1.1963,1.1962,0,1.1715,1.1713,1.175,1.1755,1.177,1.1778,1.1787,1.1823,1.1831,1.1857,1.1854,1.1866,1.1878,1.189,1.1917,1.1929,1.1941,1.1916,1.1942,1.1931,1.1936,1.1935,1.1933,1.1909,1.1908,1.1907,1.1906,0,1.1652,1.1668,1.168,1.1697,1.1707,1.1722,1.1739,1.1741,1.1782,1.1788,1.1798,1.1807,1.1825,1.1836,1.1853,1.1868,1.1892,1.1898,1.1894,1.1881,1.1868,1.1872,1.1956,1.1899,1.1899,1.19,1.19,1.1901,1.1599,1.1599,1.1624,1.1636,1.1653,1.1668,1.167,1.1694,1.1703,1.1721,1.1742,1.1749,1.1772,1.1797,1.181,1.1816,1.1829,1.1824,1.1822,1.1819,1.1813,1.187,1.1819,1.182,1.182,1.182,1.182,0,1.1535,1.1554,1.1564,1.1587,1.1596,1.1621,1.1641,1.1646,1.1652,1.1672,1.1683,1.1694,1.1705,1.1732,1.1745,1.1744,1.1755,1.1746,1.1744,1.1747,1.1801,1.1802,1.1736,1.1736,1.1736,1.1736,1.1736,1.1736,1.1502,1.1502,1.1521,1.1528,1.1547,1.1555,1.1564,1.1577,1.1593,1.1604,1.1613,1.1632,1.1654,1.1669,1.168,1.1688,1.1689,1.1675,1.1686,1.1735,1.1743,1.1751,1.1752,1.1676,1.1676,1.1631,1.163,1.163]}]]